Time,TemperatureF,DewpointF,PressureIn,WindDirection,WindDirectionDegrees,WindSpeedMPH,WindSpeedGustMPH,Humidity,HourlyPrecipIn,Conditions,Clouds,dailyrainin,SoftwareType,DateUTC
2013-03-20 00:03:00,30.0,21.0,30.02,West,278,6.0,12.0,69,0.00,,,0.00,,2013-03-20 04:03:00,
2013-03-20 00:12:00,30.0,21.0,30.02,West,278,6.0,12.0,69,0.00,,,0.00,,2013-03-20 04:12:00,
2013-03-20 00:23:00,30.0,21.0,30.02,West,278,6.0,12.0,69,0.00,,,0.00,,2013-03-20 04:23:00,
2013-03-20 00:32:00,30.0,21.0,30.02,West,276,10.0,17.0,69,0.00,,,0.00,,2013-03-20 04:32:00,
2013-03-20 00:43:00,30.0,21.0,30.02,West,276,10.0,17.0,69,0.00,,,0.00,,2013-03-20 04:43:00,
2013-03-20 00:53:00,30.0,21.0,30.02,West,279,9.0,18.0,68,0.00,,,0.00,,2013-03-20 04:53:00,
2013-03-20 01:03:00,30.0,21.0,30.02,West,279,10.0,16.0,69,0.00,,,0.00,,2013-03-20 05:03:00,
2013-03-20 01:13:00,29.0,20.0,30.02,WNW,300,9.0,15.0,69,0.00,,,0.00,,2013-03-20 05:13:00,
2013-03-20 01:23:00,29.0,20.0,30.02,WNW,300,9.0,15.0,69,0.00,,,0.00,,2013-03-20 05:23:00,
2013-03-20 01:32:00,29.0,20.0,30.01,West,281,9.0,17.0,69,0.00,,,0.00,,2013-03-20 05:32:00,
2013-03-20 01:42:00,29.0,20.0,30.01,West,281,9.0,17.0,69,0.00,,,0.00,,2013-03-20 05:42:00,
2013-03-20 01:53:00,28.0,20.0,30.02,WNW,295,7.0,12.0,70,0.00,,,0.00,,2013-03-20 05:53:00,
2013-03-20 02:03:00,28.0,20.0,30.02,WNW,295,7.0,13.0,70,0.00,,,0.00,,2013-03-20 06:03:00,
2013-03-20 02:13:00,28.0,20.0,30.02,WNW,295,7.0,13.0,70,0.00,,,0.00,,2013-03-20 06:13:00,
2013-03-20 02:22:00,28.0,19.0,30.02,West,276,6.0,13.0,69,0.00,,,0.00,,2013-03-20 06:22:00,
2013-03-20 02:32:00,28.0,19.0,30.02,WNW,286,7.0,13.0,68,0.00,,,0.00,,2013-03-20 06:32:00,
2013-03-20 02:42:00,28.0,19.0,30.02,WNW,286,7.0,13.0,68,0.00,,,0.00,,2013-03-20 06:42:00,
2013-03-20 02:53:00,28.0,19.0,30.02,WNW,282,6.0,11.0,68,0.00,,,0.00,,2013-03-20 06:53:00,
2013-03-20 03:02:00,27.0,18.0,30.02,West,275,6.0,13.0,69,0.00,,,0.00,,2013-03-20 07:02:00,
2013-03-20 03:12:00,27.0,18.0,30.02,West,275,6.0,13.0,69,0.00,,,0.00,,2013-03-20 07:12:00,
2013-03-20 03:22:00,27.0,18.0,30.01,WNW,282,5.0,11.0,69,0.00,,,0.00,,2013-03-20 07:22:00,
2013-03-20 03:32:00,27.0,19.0,30.01,West,279,5.0,9.0,70,0.00,,,0.00,,2013-03-20 07:32:00,
2013-03-20 03:42:00,27.0,19.0,30.01,West,279,5.0,9.0,70,0.00,,,0.00,,2013-03-20 07:42:00,
2013-03-20 03:52:00,26.0,18.0,30.00,WSW,256,3.0,7.0,70,0.00,,,0.00,,2013-03-20 07:52:00,
2013-03-20 04:02:00,26.0,18.0,30.00,WNW,288,1.0,7.0,72,0.00,,,0.00,,2013-03-20 08:02:00,
2013-03-20 04:12:00,26.0,18.0,30.00,WNW,288,1.0,7.0,72,0.00,,,0.00,,2013-03-20 08:12:00,
2013-03-20 04:22:00,25.0,17.0,29.99,WNW,288,1.0,4.0,72,0.00,,,0.00,,2013-03-20 08:22:00,
2013-03-20 04:32:00,25.0,18.0,29.98,WNW,284,0.0,3.0,73,0.00,,,0.00,,2013-03-20 08:32:00,
2013-03-20 04:42:00,25.0,18.0,29.98,WNW,284,0.0,3.0,73,0.00,,,0.00,,2013-03-20 08:42:00,
2013-03-20 04:52:00,25.0,18.0,29.98,WNW,284,0.0,2.0,73,0.00,,,0.00,,2013-03-20 08:52:00,
2013-03-20 05:02:00,25.0,18.0,29.98,NNE,23,1.0,5.0,73,0.00,,,0.00,,2013-03-20 09:02:00,
2013-03-20 05:12:00,25.0,18.0,29.98,NNE,23,1.0,5.0,73,0.00,,,0.00,,2013-03-20 09:12:00,
2013-03-20 05:22:00,25.0,18.0,29.98,WNW,290,0.0,6.0,74,0.00,,,0.00,,2013-03-20 09:22:00,
2013-03-20 05:33:00,24.0,18.0,29.99,WNW,290,0.0,4.0,76,0.00,,,0.00,,2013-03-20 09:33:00,
2013-03-20 05:43:00,24.0,18.0,29.99,WNW,290,0.0,4.0,76,0.00,,,0.00,,2013-03-20 09:43:00,
2013-03-20 05:53:00,24.0,18.0,29.98,WNW,290,1.0,6.0,76,0.00,,,0.00,,2013-03-20 09:53:00,
2013-03-20 06:03:00,24.0,18.0,29.98,West,261,1.0,5.0,76,0.00,,,0.00,,2013-03-20 10:03:00,
2013-03-20 06:13:00,24.0,18.0,29.98,West,261,1.0,5.0,76,0.00,,,0.00,,2013-03-20 10:13:00,
2013-03-20 06:23:00,24.0,18.0,29.98,West,271,1.0,4.0,77,0.00,,,0.00,,2013-03-20 10:23:00,
2013-03-20 06:33:00,24.0,18.0,29.98,WNW,293,3.0,6.0,78,0.00,,,0.00,,2013-03-20 10:33:00,
2013-03-20 06:43:00,24.0,18.0,29.98,WNW,293,3.0,6.0,78,0.00,,,0.00,,2013-03-20 10:43:00,
2013-03-20 06:53:00,24.0,19.0,29.98,WNW,285,3.0,6.0,80,0.00,,,0.00,,2013-03-20 10:53:00,
2013-03-20 07:03:00,25.0,19.0,29.99,West,281,7.0,10.0,79,0.00,,,0.00,,2013-03-20 11:03:00,
2013-03-20 07:12:00,25.0,19.0,29.99,West,281,7.0,10.0,79,0.00,,,0.00,,2013-03-20 11:12:00,
2013-03-20 07:22:00,25.0,19.0,29.99,West,280,7.0,10.0,79,0.00,,,0.00,,2013-03-20 11:22:00,
2013-03-20 07:32:00,25.0,19.0,29.99,West,280,7.0,10.0,79,0.00,,,0.00,,2013-03-20 11:32:00,
2013-03-20 07:42:00,25.0,19.0,29.99,West,280,7.0,10.0,79,0.00,,,0.00,,2013-03-20 11:42:00,
2013-03-20 07:52:00,25.0,19.0,29.99,West,281,4.0,9.0,79,0.00,,,0.00,,2013-03-20 11:52:00,
2013-03-20 08:02:00,25.0,20.0,29.99,WNW,285,4.0,8.0,81,0.00,,,0.00,,2013-03-20 12:02:00,
2013-03-20 08:13:00,25.0,20.0,29.99,WNW,285,4.0,8.0,81,0.00,,,0.00,,2013-03-20 12:13:00,
2013-03-20 08:22:00,25.0,20.0,29.99,WNW,297,1.0,7.0,82,0.00,,,0.00,,2013-03-20 12:22:00,
2013-03-20 08:33:00,25.0,19.0,30.00,West,281,7.0,16.0,77,0.00,,,0.00,,2013-03-20 12:33:00,
2013-03-20 08:42:00,25.0,19.0,30.00,West,281,7.0,16.0,77,0.00,,,0.00,,2013-03-20 12:42:00,
2013-03-20 08:52:00,25.0,19.0,30.00,WNW,292,6.0,11.0,78,0.00,,,0.00,,2013-03-20 12:52:00,
2013-03-20 09:03:00,25.0,19.0,30.00,WNW,296,8.0,12.0,76,0.00,,,0.00,,2013-03-20 13:03:00,
2013-03-20 09:12:00,25.0,19.0,30.00,WNW,296,8.0,12.0,76,0.00,,,0.00,,2013-03-20 13:12:00,
2013-03-20 09:22:00,26.0,19.0,30.00,WNW,292,9.0,14.0,73,0.00,,,0.00,,2013-03-20 13:22:00,
2013-03-20 09:32:00,26.0,18.0,30.00,West,281,10.0,17.0,71,0.00,,,0.00,,2013-03-20 13:32:00,
2013-03-20 09:42:00,26.0,18.0,30.00,West,281,10.0,17.0,71,0.00,,,0.00,,2013-03-20 13:42:00,
2013-03-20 09:52:00,26.0,18.0,30.01,WNW,288,10.0,17.0,71,0.00,,,0.00,,2013-03-20 13:52:00,
2013-03-20 10:03:00,26.0,18.0,30.01,West,267,8.0,15.0,70,0.00,,,0.00,,2013-03-20 14:03:00,
2013-03-20 10:12:00,26.0,18.0,30.01,West,267,8.0,15.0,70,0.00,,,0.00,,2013-03-20 14:12:00,
2013-03-20 10:23:00,26.0,17.0,30.01,WSW,248,8.0,16.0,68,0.00,,,0.00,,2013-03-20 14:23:00,
2013-03-20 10:34:00,26.0,17.0,30.01,West,277,11.0,18.0,68,0.00,,,0.00,,2013-03-20 14:34:00,
2013-03-20 10:42:00,26.0,17.0,30.01,West,277,11.0,18.0,68,0.00,,,0.00,,2013-03-20 14:42:00,
2013-03-20 10:52:00,27.0,18.0,30.01,West,266,10.0,17.0,67,0.00,,,0.00,,2013-03-20 14:52:00,
2013-03-20 11:03:00,27.0,16.0,30.01,West,259,10.0,17.0,64,0.00,,,0.00,,2013-03-20 15:03:00,
2013-03-20 11:13:00,27.0,16.0,30.00,WNW,284,9.0,16.0,63,0.00,,,0.00,,2013-03-20 15:13:00,
2013-03-20 11:22:00,27.0,16.0,30.00,WNW,284,9.0,16.0,63,0.00,,,0.00,,2013-03-20 15:22:00,
2013-03-20 11:33:00,28.0,16.0,30.00,WNW,285,10.0,16.0,61,0.00,,,0.00,,2013-03-20 15:33:00,
2013-03-20 11:43:00,28.0,16.0,30.00,WNW,285,10.0,16.0,61,0.00,,,0.00,,2013-03-20 15:43:00,
2013-03-20 11:52:00,28.0,16.0,30.00,WNW,293,7.0,17.0,61,0.00,,,0.00,,2013-03-20 15:52:00,
2013-03-20 12:03:00,28.0,17.0,30.00,WNW,288,9.0,15.0,62,0.00,,,0.00,,2013-03-20 16:03:00,
2013-03-20 12:13:00,28.0,17.0,30.00,WNW,288,9.0,15.0,62,0.00,,,0.00,,2013-03-20 16:13:00,
2013-03-20 12:23:00,28.0,16.0,29.99,West,280,7.0,17.0,60,0.00,,,0.00,,2013-03-20 16:23:00,
2013-03-20 12:33:00,29.0,17.0,29.99,WNW,287,6.0,14.0,61,0.00,,,0.00,,2013-03-20 16:33:00,
2013-03-20 12:43:00,29.0,17.0,29.99,WNW,287,6.0,14.0,61,0.00,,,0.00,,2013-03-20 16:43:00,
2013-03-20 12:52:00,30.0,17.0,29.99,West,275,8.0,17.0,59,0.00,,,0.00,,2013-03-20 16:52:00,
2013-03-20 13:03:00,30.0,17.0,29.99,SW,227,9.0,17.0,58,0.00,,,0.00,,2013-03-20 17:03:00,
2013-03-20 13:12:00,30.0,17.0,29.99,SW,227,9.0,17.0,58,0.00,,,0.00,,2013-03-20 17:12:00,
2013-03-20 13:22:00,30.0,18.0,29.99,WNW,283,11.0,15.0,60,0.00,,,0.00,,2013-03-20 17:22:00,
2013-03-20 13:32:00,30.0,17.0,29.98,SSW,208,4.0,18.0,59,0.00,,,0.00,,2013-03-20 17:32:00,
2013-03-20 13:42:00,30.0,17.0,29.98,SSW,208,4.0,18.0,59,0.00,,,0.00,,2013-03-20 17:42:00,
2013-03-20 13:52:00,31.0,18.0,29.98,West,278,7.0,15.0,59,0.00,,,0.00,,2013-03-20 17:52:00,
2013-03-20 14:02:00,30.0,16.0,29.98,WNW,286,10.0,20.0,56,0.00,,,0.00,,2013-03-20 18:02:00,
2013-03-20 14:12:00,30.0,16.0,29.98,WNW,286,10.0,20.0,56,0.00,,,0.00,,2013-03-20 18:12:00,
2013-03-20 14:22:00,31.0,17.0,29.97,WSW,254,10.0,14.0,56,0.00,,,0.00,,2013-03-20 18:22:00,
2013-03-20 14:34:00,30.0,17.0,29.97,West,274,14.0,21.0,57,0.00,,,0.00,,2013-03-20 18:34:00,
2013-03-20 14:43:00,30.0,17.0,29.97,West,274,14.0,21.0,57,0.00,,,0.00,,2013-03-20 18:43:00,
2013-03-20 14:52:00,30.0,16.0,29.97,West,266,7.0,19.0,55,0.00,,,0.00,,2013-03-20 18:52:00,
2013-03-20 15:02:00,29.0,16.0,29.97,West,281,9.0,20.0,58,0.00,,,0.00,,2013-03-20 19:02:00,
2013-03-20 15:12:00,29.0,16.0,29.97,West,281,9.0,20.0,58,0.00,,,0.00,,2013-03-20 19:12:00,
2013-03-20 15:23:00,30.0,17.0,29.97,WNW,286,12.0,19.0,59,0.00,,,0.00,,2013-03-20 19:23:00,
2013-03-20 15:32:00,30.0,17.0,29.97,WNW,286,12.0,19.0,59,0.00,,,0.00,,2013-03-20 19:32:00,
2013-03-20 15:42:00,30.0,17.0,29.97,WNW,286,12.0,19.0,59,0.00,,,0.00,,2013-03-20 19:42:00,
2013-03-20 15:52:00,31.0,17.0,29.96,WSW,252,11.0,17.0,56,0.00,,,0.00,,2013-03-20 19:52:00,
2013-03-20 16:02:00,29.0,16.0,29.96,WSW,243,7.0,18.0,57,0.00,,,0.00,,2013-03-20 20:02:00,
2013-03-20 16:13:00,29.0,16.0,29.96,WSW,243,7.0,18.0,57,0.00,,,0.00,,2013-03-20 20:13:00,
2013-03-20 16:22:00,29.0,16.0,29.96,West,263,7.0,18.0,59,0.00,,,0.00,,2013-03-20 20:22:00,
2013-03-20 16:32:00,29.0,16.0,29.96,West,279,12.0,18.0,59,0.00,,,0.00,,2013-03-20 20:32:00,
2013-03-20 16:42:00,29.0,16.0,29.96,West,279,12.0,18.0,59,0.00,,,0.00,,2013-03-20 20:42:00,
2013-03-20 16:52:00,28.0,17.0,29.96,WNW,288,12.0,19.0,63,0.00,,,0.00,,2013-03-20 20:52:00,
2013-03-20 17:02:00,27.0,16.0,29.96,West,269,8.0,17.0,63,0.00,,,0.00,,2013-03-20 21:02:00,
2013-03-20 17:12:00,27.0,16.0,29.96,West,269,8.0,17.0,63,0.00,,,0.00,,2013-03-20 21:12:00,
2013-03-20 17:23:00,28.0,17.0,29.96,WSW,252,9.0,17.0,62,0.00,,,0.00,,2013-03-20 21:23:00,
2013-03-20 17:33:00,29.0,17.0,29.96,NW,311,10.0,19.0,61,0.00,,,0.00,,2013-03-20 21:33:00,
2013-03-20 17:42:00,29.0,17.0,29.96,NW,311,10.0,19.0,61,0.00,,,0.00,,2013-03-20 21:42:00,
2013-03-20 17:52:00,28.0,16.0,29.96,WSW,242,11.0,18.0,60,0.00,,,0.00,,2013-03-20 21:52:00,
2013-03-20 18:03:00,27.0,15.0,29.95,West,268,9.0,16.0,59,0.00,,,0.00,,2013-03-20 22:03:00,
2013-03-20 18:13:00,27.0,15.0,29.95,West,268,9.0,16.0,59,0.00,,,0.00,,2013-03-20 22:13:00,
2013-03-20 18:23:00,27.0,15.0,29.96,WSW,242,13.0,18.0,59,0.00,,,0.00,,2013-03-20 22:23:00,
2013-03-20 18:33:00,27.0,15.0,29.96,WNW,288,12.0,17.0,60,0.00,,,0.00,,2013-03-20 22:33:00,
2013-03-20 18:42:00,27.0,15.0,29.96,WNW,288,12.0,17.0,60,0.00,,,0.00,,2013-03-20 22:42:00,
2013-03-20 18:52:00,27.0,15.0,29.96,West,273,8.0,14.0,60,0.00,,,0.00,,2013-03-20 22:52:00,
2013-03-20 19:03:00,27.0,14.0,29.97,West,264,11.0,17.0,58,0.00,,,0.00,,2013-03-20 23:03:00,
2013-03-20 19:12:00,27.0,14.0,29.97,West,264,11.0,17.0,58,0.00,,,0.00,,2013-03-20 23:12:00,
2013-03-20 19:23:00,27.0,15.0,29.97,West,269,6.0,14.0,60,0.00,,,0.00,,2013-03-20 23:23:00,
2013-03-20 19:32:00,26.0,14.0,29.98,West,275,8.0,16.0,59,0.00,,,0.00,,2013-03-20 23:32:00,
2013-03-20 19:43:00,26.0,14.0,29.98,West,275,8.0,16.0,59,0.00,,,0.00,,2013-03-20 23:43:00,
2013-03-20 19:52:00,26.0,14.0,29.98,West,265,7.0,14.0,59,0.00,,,0.00,,2013-03-20 23:52:00,
2013-03-20 20:03:00,25.0,13.0,29.98,WSW,254,5.0,11.0,60,0.00,,,0.00,,2013-03-21 00:03:00,
2013-03-20 20:13:00,25.0,13.0,29.98,WSW,254,5.0,11.0,60,0.00,,,0.00,,2013-03-21 00:13:00,
2013-03-20 20:23:00,25.0,14.0,29.99,West,265,6.0,10.0,62,0.00,,,0.00,,2013-03-21 00:23:00,
2013-03-20 20:33:00,25.0,15.0,29.99,West,276,6.0,9.0,64,0.00,,,0.00,,2013-03-21 00:33:00,
2013-03-20 20:42:00,25.0,15.0,29.99,West,276,6.0,9.0,64,0.00,,,0.00,,2013-03-21 00:42:00,
2013-03-20 20:52:00,24.0,14.0,29.99,WSW,258,4.0,11.0,65,0.00,,,0.00,,2013-03-21 00:52:00,
2013-03-20 21:02:00,24.0,14.0,30.00,WNW,295,5.0,11.0,65,0.00,,,0.00,,2013-03-21 01:02:00,
2013-03-20 21:12:00,24.0,14.0,30.00,WNW,295,5.0,11.0,65,0.00,,,0.00,,2013-03-21 01:12:00,
2013-03-20 21:22:00,23.0,14.0,30.00,West,264,5.0,11.0,67,0.00,,,0.00,,2013-03-21 01:22:00,
2013-03-20 21:33:00,22.0,13.0,30.01,WNW,282,4.0,10.0,68,0.00,,,0.00,,2013-03-21 01:33:00,
2013-03-20 21:42:00,22.0,13.0,30.01,WNW,282,4.0,10.0,68,0.00,,,0.00,,2013-03-21 01:42:00,
2013-03-20 21:52:00,22.0,13.0,30.01,West,259,5.0,10.0,68,0.00,,,0.00,,2013-03-21 01:52:00,
2013-03-20 22:03:00,22.0,13.0,30.01,West,269,3.0,8.0,68,0.00,,,0.00,,2013-03-21 02:03:00,
2013-03-20 22:13:00,22.0,13.0,30.01,West,269,3.0,8.0,68,0.00,,,0.00,,2013-03-21 02:13:00,
2013-03-20 22:22:00,22.0,13.0,30.01,West,269,3.0,8.0,69,0.00,,,0.00,,2013-03-21 02:22:00,
2013-03-20 22:33:00,21.0,12.0,30.00,West,276,4.0,9.0,69,0.00,,,0.00,,2013-03-21 02:33:00,
2013-03-20 22:42:00,21.0,12.0,30.00,West,276,4.0,9.0,69,0.00,,,0.00,,2013-03-21 02:42:00,
2013-03-20 22:52:00,21.0,12.0,30.00,West,276,4.0,9.0,69,0.00,,,0.00,,2013-03-21 02:52:00,
2013-03-20 23:02:00,21.0,13.0,30.01,West,281,2.0,6.0,71,0.00,,,0.00,,2013-03-21 03:02:00,
2013-03-20 23:12:00,21.0,13.0,30.01,West,281,2.0,6.0,71,0.00,,,0.00,,2013-03-21 03:12:00,
2013-03-20 23:22:00,20.0,13.0,30.01,WSW,251,2.0,5.0,73,0.00,,,0.00,,2013-03-21 03:22:00,
2013-03-20 23:33:00,20.0,13.0,30.01,West,261,2.0,5.0,74,0.00,,,0.00,,2013-03-21 03:33:00,
2013-03-20 23:43:00,20.0,13.0,30.01,West,261,2.0,5.0,74,0.00,,,0.00,,2013-03-21 03:43:00,
2013-03-20 23:53:00,20.0,14.0,30.01,WNW,288,3.0,7.0,76,0.00,,,0.00,,2013-03-21 03:53:00,